Location: Ailly
(50.0793°N, 1.9944°E)
Time: 21:47:55
(UTC+00:00)

Cosmos 2084 - Pass Details

Date: 15 January 2026
Orbit: 536 x 564 km, 62.8° (Epoch: 18 February)

Event Time Altitude Azimuth Distance (km) Brightness Sun altitude
Exits shadow 06:19:05 21° 278° (W) 1,278 4.6 -13.3°
Maximum altitude 06:21:07 33° 327° (NNW) 951 4.1 -13.0°
Drops below altitude 10° 06:24:54 10° 33° (NNE) 1,841 6.2 -12.4°
Sets 06:27:17 0° 43° (NE) 2,732 7.2 -12.0°
